Regional Weather Roundup
Issued by NWS

Home | Current Version | Previous Version | Graphics & Text | Print | Product List | Glossary On
Versions: 1 2 3 4 5 6 7 8 9 10 11 12 13 14 15 16 17 18 19 20 21 22 23 24 25 26 27
000
ASUS45 KTFX 250810
RWRMT
MONTANA REGIONAL WEATHER ROUNDUP
NATIONAL WEATHER SERVICE GREAT FALLS MT
200 AM MDT SUN JUN 25 2017

NOTE: "FAIR" INDICATES FEW OR NO CLOUDS BELOW 12000 FEET WITH NO
SIGNIFICANT WEATHER AND/OR OBSTRUCTIONS TO VISIBILITY.

MTZ001>007-043-250900-
WEST OF THE DIVIDE

CITY           SKY/WX    TMP DP  RH WIND       PRES   REMARKS
KALISPELL      CLEAR     53  47  79 SE3       30.22S
MISSOULA       CLEAR     53  41  63 N6        30.25R
BUTTE          CLEAR     50  37  61 E5        30.37R
MULLAN PASS    CLEAR     59  31  34 SE8       30.35F
ANACONDA         N/A     48  37  66 SW5       30.35S
DEER LODGE       N/A     54  37  54 W7        30.35S
EUREKA           N/A     54  43  66 MISG      30.21R
HAMILTON         N/A     54  41  62 CALM      30.26R
$$

MTZ008-052>055-250900-
SOUTHWEST MONTANA

CITY           SKY/WX    TMP DP  RH WIND       PRES   REMARKS
BOZEMAN        CLEAR     50  40  68 NW12      30.33R
DILLON         CLEAR     52  37  56 E8        30.33R
W YELLOWSTONE  CLEAR     37  32  81 CALM      30.41S
ENNIS          CLEAR     45  37  76 CALM      30.39R
THREE FORKS      N/A     48  40  74 CALM      30.28S
$$

MTZ009-010-012-014-046-048-049-054-250900-
EAST SLOPES AND CENTRAL MONTANA

CITY           SKY/WX    TMP DP  RH WIND       PRES   REMARKS
CUT BANK       CLEAR     51  42  71 S3        30.33S
GREAT FALLS    CLOUDY    51  42  71 CALM      30.33S
MALMSTROM AFB  MOCLDY    51  45  78 NE5       30.32F
HELENA         CLEAR     58  40  51 W8        30.31F
CHOTEAU          N/A     50  45  81 W5        30.36S
$$

MTZ011-013-016-021-045-047-050-051-250900-
NORTH CENTRAL MONTANA

CITY           SKY/WX    TMP DP  RH WIND       PRES   REMARKS
HAVRE          CLEAR     45  39  79 CALM      30.31S
LEWISTOWN      CLEAR     44  39  82 SE6       30.36S
N BAR RANCH      N/A     45  36  70 W6        30.39F
CHINOOK          N/A     45  39  81 CALM      30.30S
FORT BENTON      N/A     54  39  58 CALM      30.33F
$$

MTZ017>020-022>027-061-062-250900-
NORTHEAST MONTANA

CITY           SKY/WX    TMP DP  RH WIND       PRES   REMARKS
GLASGOW        CLEAR     51  34  52 E6        30.26F
JORDAN           N/A     45  28  51 W7        30.29S
SIDNEY         CLEAR     44  37  76 S8        30.27F
WOLF POINT     CLEAR     45  32  60 W5        30.27S
MALTA          CLEAR     48  41  76 CALM      30.28S
PLENTYWOOD       N/A     52  36  54 CALM      30.26S
POPLAR           N/A     52  36  54 CALM      30.27F
$$

MTZ028>42-056>058-250900-
SOUTHCENTRAL AND SOUTHEAST MONTANA

CITY           SKY/WX    TMP DP  RH WIND       PRES   REMARKS
BAKER          CLEAR     47  31  53 S8        30.33F
BILLINGS       CLOUDY    60  38  43 N5        30.34
LIVINGSTON     CLEAR     51  36  56 SE9       30.36R
MILES CITY     CLEAR     53  30  41 SE8       30.30F
BIG TIMBER     CLEAR     48  37  66 NE6       30.40R
FORSYTH          N/A     55  30  38 CALM      30.30S
ROUNDUP          N/A     56  32  40 SW2       30.22F
$$

REGIONAL REPORTS...DAKOTAS

CITY           SKY/WX    TMP DP  RH WIND       PRES   REMARKS
WILLISTON      CLEAR     50  40  68 SW7       30.26S
MINOT          CLOUDY    50  40  68 SW9       30.25R
DICKINSON      CLEAR     39  32  76 S7        30.28F
BEACH            N/A     48  34  57 S8G15     30.33S
CROSBY         LGT RAIN  52  52 100 W8G17     30.27R
TIOGA          CLOUDY    45  45 100 E6        30.28R
WATFORD CITY     N/A     41  36  81 SW5       30.26S
BISMARCK       CLEAR     43  39  86 SW5       30.28F
GRAND FORKS    CLEAR     45  42  89 NW8       30.19R
FARGO          CLEAR     50  43  77 NW12      30.18S
BUFFALO SD       N/A     48  32  53 W5        30.29S
RAPID CITY     CLOUDY    49  34  56 W3        30.38S
$$

REGIONAL REPORTS...WYOMING/IDAHO/WASHINGTON

CITY           SKY/WX    TMP DP  RH WIND       PRES   REMARKS
GILLETTE       CLEAR     39  33  79 S3        30.36F
SHERIDAN       CLEAR     44  39  82 N3        30.34F
BUFFALO WY     MOCLDY    54  38  54 S5        30.37F
CODY           PTCLDY    50  34  54 S7        30.37F
YELLOWSTONE LA   N/A     37  32  82 NW3       30.48S
IDAHO FALLS    CLEAR     50  46  86 N5        30.25S
SALMON         CLEAR     52  39  62 CALM      30.24S
BOISE          CLEAR     65  42  43 SE10      30.09S
SPOKANE        CLEAR     66  43  43 NE5       30.14S
$$

REGIONAL REPORTS...ALBERTA

CITY           SKY/WX    TMP DP  RH WIND       PRES   REMARKS
EDMONTON       CLEAR     55  48  76 S8        30.24F
CALGARY        PTCLDY    54  43  66 S7        30.30S
LETHBRIDGE     MOCLDY    52  46  82 SW3       30.30S
MEDICINE HAT   CLEAR     50  46  87 SW6       30.28S
WATERTON GATE    N/A     41  39  93 SW1         N/A
CARDSTON         N/A     48  43  81 SE5         N/A
MILK RIVER       N/A     45  41  87 CALM        N/A
ONEFOUR          N/A     48  41  76 NW5         N/A
$$

REGIONAL REPORTS...SASKATCHEWAN

CITY           SKY/WX    TMP DP  RH WIND       PRES   REMARKS
SWIFT CURRENT  CLOUDY    50  46  87 SW8       30.26F
REGINA         CLOUDY    48  45  87 NE2       30.26R
SASKATOON      PTCLDY    48  46  93 W5        30.26S
CYPRESS HILLS    N/A     48  37  66 NW2         N/A
VAL MARIE        N/A     39  32  75 NW2         N/A
ROCKGLEN         N/A     52  37  58 NW3         N/A
$$




USA.gov is the U.S. government's official web portal to all federal, state and local government web resources and services.